Location: Newark
(43.4100°N, 74.9600°W)
Time: 14:19:11
(UTC+00:00)

ISS - Pass Details

Date: 25 September 2019
Orbit: 411 x 421 km, 51.6° (Epoch: 16 October)

Event Time Altitude Azimuth Distance (km) Brightness Sun altitude
Rises 23:58:06 0° 261° (W) 2,338 1.5 -12.4°
Reaches altitude 10° 00:00:18 10° 270° (W) 1,478 0.4 -12.8°
Maximum altitude 00:03:23 34° 338° (NNW) 693 -2.3 -13.4°
Enters shadow 00:06:15 11° 45° (NE) 1,404 -1.4 -13.9°
